Terminal Aerodrome Forecast
Issued by NWS

Current Version | Previous Version | Graphics & Text | Print | Product List | Glossary On
Versions: 1 2 3 4 5 6 7 8 9 10 11 12 13 14 15 16 17 18 19 20
000
FTUS41 KPBZ 151100
TAFMGW
TAF
KMGW 151130Z 1512/1612 00000KT 4SM BR SCT004
      TEMPO 1512/1513 2SM BR BKN004
     FM151400 17005KT P6SM SCT250=

USA.gov is the U.S. government's official web portal to all federal, state and local government web resources and services.